Vorticity
4 7 7 8 5 4 4 6 7 10 9 7 6 5 5 6 6 4 2 2 2 3 4 5 3 2 2 2 7 7 8 8 7 6 4 4 3 5 8 0 7 6 4
8 7 7 8 4 3 5 5 8 10 8 6 5 6 5 6 5 4 2 3 3 4 4 3 2 2 2 6 6 7 8 6 5 5 3 7 4 4 6 6 5 4 5
9 7 9 6 4 5 5 5 10 12 9 7 5 5 5 5 4 3 3 3 3 3 3 2 1 2 6 6 9 9 6 4 3 5 6 9 7 8 7 6 7 6 7
6 6 7 4 5 5 4 8 12 11 9 6 6 5 4 5 4 3 3 3 3 3 3 1 2 4 6 11 8 5 4 5 5 7 6 7 7 6 5 8 8 7 6
6 8 7 4 4 4 5 8 12 11 9 7 6 5 5 5 4 3 3 3 4 3 0 2 3 6 11 7 4 4 4 6 7 7 7 7 7 7 6 5 5 6 8
6 8 5 4 3 4 5 9 12 10 8 7 6 5 4 4 4 4 4 5 4 1 2 2 7 10 7 4 4 5 6 7 7 7 7 7 7 7 6 7 6 5 6
7 8 4 5 6 6 7 11 11 9 8 7 6 5 4 4 4 4 5 5 1 1 0 6 11 6 4 4 6 7 7 7 7 7 7 7 7 8 8 8 8 7 9
11 8 8 7 6 7 7 9 10 10 8 6 5 5 5 5 4 5 4 -0 1 -1 6 11 6 4 5 6 7 6 6 7 7 7 8 9 10 11 12 13 14 13 11
14 13 9 6 7 6 8 9 10 8 7 7 6 5 5 5 6 5 0 -0 -1 5 12 5 3 5 7 7 6 7 7 8 8 9 9 10 12 15 17 17 17 18 19
15 13 11 10 8 7 7 9 8 8 7 6 6 6 6 6 5 -1 0 0 1 11 5 3 5 7 7 7 7 8 9 9 10 12 14 16 18 18 15 12 10 8 8
11 11 12 9 7 7 7 8 8 7 7 7 7 6 6 5 0 0 1 -1 9 6 3 4 7 7 8 8 9 10 10 11 14 15 17 16 14 11 9 8 8 8 10
11 10 9 9 9 6 7 7 8 7 6 6 7 6 5 1 0 1 1 4 8 2 3 7 8 9 9 9 10 12 12 14 15 14 12 10 8 7 8 7 6 6 8
8 9 9 7 4 6 7 7 6 6 6 7 6 6 3 1 1 2 1 8 3 3 8 9 8 9 9 11 14 15 14 12 10 8 7 8 9 10 11 9 8 9 10
10 10 8 6 7 8 6 6 6 5 6 7 7 5 2 2 2 2 7 3 4 8 9 8 9 11 13 16 13 11 10 9 8 9 9 10 11 11 11 11 13 16 15
10 10 7 8 8 6 6 5 6 6 7 6 5 3 3 3 2 7 3 6 9 9 8 10 12 14 15 12 10 10 8 9 10 11 13 14 15 16 15 14 15 17 20
8 2 10 8 5 5 5 7 6 7 7 5 3 4 3 4 5 3 7 9 8 8 10 13 15 14 10 9 10 10 11 10 13 14 10 14 15 14 13 13 13 15 19
8 12 10 7 3 6 7 6 7 6 4 5 5 3 6 3 5 9 9 8 9 11 15 16 14 9 9 12 12 12 11 15 11 4 11 17 17 16 15 13 11 12 16
8 8 6 7 8 8 8 6 6 5 6 4 4 4 4 7 11 9 8 10 12 16 15 12 9 11 13 13 12 13 14 8 5 7 15 17 15 15 13 13 13 14 18
9 8 7 7 8 6 6 5 6 7 5 5 2 5 10 9 8 9 11 15 16 14 10 10 12 12 14 12 14 15 8 4 7 12 17 16 16 14 12 13 16 19 23
7 9 8 7 6 7 7 8 6 6 3 3 8 10 8 9 10 12 15 15 11 10 10 12 13 11 13 15 12 9 6 7 11 15 16 17 16 14 14 17 14 9 14
11 10 8 8 8 9 9 9 5 3 6 9 9 8 9 10 12 15 15 10 8 11 12 12 11 14 13 11 10 9 11 14 16 14 16 18 13 12 15 13 12 16 16
14 12 11 10 10 9 5 3 5 8 9 9 9 9 11 14 16 14 9 8 11 13 11 12 13 12 11 10 9 11 14 16 16 20 18 18 13 10 7 10 13 14 16
11 9 10 8 5 3 4 8 9 9 9 9 10 13 15 16 13 8 8 11 13 12 13 13 11 10 9 10 12 14 17 17 18 20 15 16 15 13 11 18 8 11 13
10 7 4 2 4 9 9 8 8 8 10 12 14 15 14 10 7 8 12 13 13 13 13 10 10 10 11 13 14 15 14 12 13 16 19 17 15 17 15 22 29 13 21
3 0 5 9 8 7 7 7 8 11 13 14 13 12 9 8 10 12 13 13 15 14 10 10 10 12 12 12 13 13 13 10 12 16 18 22 10 15 11 20 20 21 2
9 9 7 6 5 6 7 8 11 13 13 11 10 9 9 11 13 13 12 15 14 11 11 12 12 12 12 12 12 12 10 11 11 12 17 18 17 15 13 17 33 11 6
Height
3121 3123 3125 3127 3130 3132 3134 3135 3137 3138 3139 3141 3142 3143 3144 3144 3144 3144 3144 3144 3143 3142 3141 3139 3137 3135 3133 3130 3128 3125 3122 3119 3117 3115 3115 3113 3111 3104 3106 3102 3099 3096 3093
3115 3118 3121 3123 3126 3128 3129 3131 3133 3134 3135 3137 3139 3140 3141 3141 3141 3142 3141 3141 3140 3139 3137 3135 3133 3131 3128 3125 3122 3119 3117 3114 3110 3108 3105 3104 3107 3099 3099 3096 3093 3091 3087
3111 3114 3116 3119 3121 3123 3125 3127 3128 3129 3131 3133 3135 3136 3137 3138 3138 3138 3138 3137 3136 3134 3132 3130 3128 3125 3122 3119 3116 3114 3111 3109 3107 3103 3099 3093 3091 3089 3094 3090 3087 3083 3080
3105 3108 3111 3114 3117 3119 3120 3122 3123 3125 3128 3130 3131 3133 3134 3135 3135 3134 3133 3132 3131 3129 3127 3124 3122 3119 3116 3113 3110 3107 3105 3102 3098 3098 3096 3091 3085 3078 3069 3076 3080 3077 3071
3099 3103 3107 3110 3111 3114 3116 3118 3119 3122 3124 3126 3128 3130 3130 3130 3130 3129 3128 3126 3125 3123 3121 3119 3116 3113 3109 3106 3103 3100 3098 3095 3090 3086 3083 3081 3077 3074 3068 3059 3058 3058 3063
3093 3098 3101 3103 3106 3109 3111 3114 3115 3117 3120 3122 3124 3125 3125 3125 3124 3124 3122 3121 3119 3117 3115 3112 3109 3105 3102 3099 3096 3092 3089 3085 3081 3077 3073 3070 3065 3061 3055 3051 3048 3046 3044
3087 3091 3094 3098 3102 3105 3107 3109 3110 3113 3115 3117 3118 3119 3120 3120 3119 3119 3118 3116 3114 3111 3108 3106 3103 3099 3095 3092 3087 3083 3079 3075 3071 3067 3063 3059 3056 3051 3047 3040 3034 3029 3028
3081 3086 3090 3094 3098 3100 3102 3103 3105 3108 3110 3112 3113 3114 3115 3116 3115 3115 3113 3111 3109 3106 3102 3099 3095 3092 3088 3083 3078 3074 3070 3065 3060 3055 3051 3045 3042 3038 3034 3029 3023 3016 3013
3075 3080 3085 3088 3092 3095 3097 3098 3101 3103 3106 3108 3109 3110 3110 3110 3109 3108 3106 3105 3102 3099 3095 3091 3087 3083 3079 3074 3068 3064 3059 3054 3049 3043 3038 3033 3029 3025 3020 3016 3012 3007 2998
3070 3075 3079 3083 3087 3090 3092 3094 3097 3099 3102 3103 3103 3104 3104 3104 3103 3102 3100 3097 3094 3090 3086 3081 3077 3073 3069 3063 3058 3053 3049 3043 3038 3032 3027 3022 3018 3013 3009 3006 3002 2998 2992
3066 3070 3074 3078 3082 3085 3088 3090 3092 3095 3096 3097 3098 3098 3098 3098 3097 3095 3093 3089 3085 3081 3076 3072 3067 3063 3057 3053 3047 3042 3035 3029 3023 3019 3014 3010 3008 3003 2999 2996 2992 2988 2984
3063 3067 3071 3074 3078 3081 3083 3086 3088 3090 3091 3091 3092 3092 3092 3091 3090 3087 3085 3081 3076 3072 3067 3062 3057 3052 3047 3041 3035 3029 3023 3017 3012 3008 3004 3000 2997 2993 2989 2984 2979 2975 2972
3058 3062 3066 3070 3073 3076 3079 3082 3083 3085 3086 3086 3086 3086 3085 3084 3082 3079 3076 3072 3067 3063 3058 3052 3047 3040 3034 3028 3024 3017 3011 3006 3001 2997 2992 2988 2984 2979 2975 2971 2966 2964 2960
3055 3059 3063 3066 3069 3072 3075 3077 3078 3079 3079 3079 3079 3078 3077 3076 3073 3070 3067 3063 3058 3053 3047 3042 3035 3029 3023 3017 3011 3006 3000 2995 2991 2987 2981 2976 2971 2965 2962 2957 2954 2950 2947
3051 3055 3059 3062 3065 3067 3069 3070 3072 3072 3073 3072 3072 3071 3070 3068 3065 3062 3058 3053 3048 3042 3036 3030 3024 3017 3012 3007 3001 2995 2990 2984 2980 2976 2970 2964 2959 2954 2949 2944 2941 2937 2934
3048 3052 3055 3058 3060 3062 3063 3064 3065 3066 3066 3066 3065 3064 3062 3060 3056 3052 3047 3042 3037 3031 3025 3018 3012 3006 3001 2996 2990 2985 2979 2974 2968 2963 2959 2952 2946 2941 2937 2933 2929 2926 2922
3045 3047 3050 3053 3054 3056 3057 3058 3059 3060 3060 3059 3058 3056 3054 3050 3047 3042 3037 3032 3026 3019 3014 3008 3002 2996 2991 2985 2980 2974 2968 2963 2958 2952 2946 2940 2933 2928 2924 2920 2916 2913 2911
3039 3042 3045 3047 3049 3051 3052 3053 3053 3053 3053 3052 3050 3048 3045 3041 3037 3032 3027 3021 3014 3009 3003 2997 2991 2985 2981 2975 2969 2963 2957 2952 2946 2940 2933 2926 2921 2917 2913 2909 2905 2902 2899
3034 3037 3040 3042 3043 3044 3046 3046 3047 3046 3046 3044 3043 3040 3036 3031 3027 3022 3016 3010 3004 2998 2993 2987 2981 2974 2971 2965 2958 2952 2947 2941 2935 2927 2921 2915 2910 2907 2903 2898 2894 2891 2888
3028 3031 3034 3035 3037 3039 3040 3040 3040 3039 3038 3038 3035 3031 3026 3022 3016 3010 3005 3000 2994 2988 2983 2976 2971 2965 2960 2955 2949 2943 2936 2928 2920 2915 2910 2906 2900 2896 2893 2890 2885 2881 2880
3023 3026 3028 3030 3032 3034 3034 3034 3034 3033 3032 3030 3026 3021 3016 3010 3005 3000 2995 2989 2984 2978 2973 2967 2962 2956 2951 2946 2940 2933 2926 2919 2911 2905 2900 2895 2891 2887 2884 2881 2878 2874 2872
3018 3021 3023 3026 3027 3028 3029 3028 3027 3026 3024 3020 3015 3010 3005 3000 2994 2989 2985 2980 2974 2969 2964 2959 2953 2947 2942 2937 2930 2923 2917 2911 2902 2896 2890 2885 2882 2878 2875 2872 2869 2866 2864
3013 3016 3018 3020 3022 3022 3022 3021 3020 3017 3014 3010 3004 2999 2994 2989 2984 2980 2976 2971 2967 2962 2956 2950 2945 2939 2933 2928 2921 2914 2908 2902 2894 2887 2881 2876 2871 2868 2864 2862 2860 2857 2855
3010 3013 3014 3016 3016 3016 3015 3014 3012 3008 3004 2999 2994 2989 2985 2981 2977 2972 2968 2963 2959 2954 2948 2942 2936 2931 2925 2919 2912 2906 2899 2893 2885 2878 2873 2868 2863 2859 2855 2851 2848 2848 2846
3007 3009 3010 3011 3011 3010 3009 3006 3002 2998 2994 2989 2985 2981 2977 2973 2969 2965 2960 2956 2952 2947 2939 2933 2928 2922 2916 2911 2905 2898 2891 2884 2877 2871 2865 2860 2856 2851 2847 2842 2840 2839 2838
3003 3005 3006 3006 3006 3004 3001 2997 2993 2989 2985 2981 2978 2974 2970 2966 2961 2957 2953 2949 2944 2939 2934 2928 2922 2916 2911 2905 2899 2893 2887 2880 2874 2867 2860 2855 2850 2845 2840 2836 2832 2831 2830